地球静止运行环境卫星 15 星 (EWS-G2 (GOES 15))

导读

GOES 15是美国于2010年3月4日发射的地球静止环境业务卫星,隶属于美国国家海洋和大气管理局(NOAA),主要承担气象观测、天气预警与预报任务。它运行在地球静止轨道,可持续监测西半球大气与海洋环境,为气象研究和防灾减灾提供关键数据,是美国GOES系列气象卫星中承前启后的重要成员,至今仍为全球气象观测网络贡献力量。

基本信息
目录编号:
36411
目录名称:
EWS-G2
国际标识:
2010-008A
轨道中心:
EARTH
卫星名称:
地球静止运行环境卫星 15 星
卫星全名:
地球静止运行环境卫星 15 星 (EWS-G2 (GOES 15))
卫星状态:
在轨 (已飞行6035 天)
发射日期:
2010-03-04 UTC
国别 :
美国 (US)
星等 :
--
该卫星已列入 空间交会检测服务 Space Conjunction Data Service (SCDS) ,当前飞行风险评估等级: 无高风险
轨道信息
数据来源 国际轨道数据 AOE轨道数据
星历时间 2026-09-11T11:59:26+0800
10小时前
查看轨道信息
2026-09-07T09:00:00+0800
4天前
查看轨道信息
半长轴 42164.924km 42165.177km
偏心率 0.0005155 0.0005184
轨道倾角 1.510° 1.499°
近地点辐角 80.331° 79.739°
升交点赤经 81.864° 81.885°
平近点角 311.169° 262.830°
近地点 35765.05km 35765.181km
远地点 35808.524km 35808.899km
周期 1436.107分钟 1436.120分钟
每日圈数 1.002711 1.002702
详细信息
卫星平台:
BSS-601
平衡模式:
三轴稳定
覆盖范围:
全球
制造商(研发单位):
波音公司
制造商所在国:
美国
使用方式:
暂无
卫星简介
地球静止环境业务卫星是美国国家海洋和大气管理局(NOAA)与美国国家航空航天局(NASA)共同发展的民用静止轨道气象系列卫星。[1]美国第一代地球静止轨道气象卫星系列。英文缩写为GOES。该卫星仍在工作。
2D轨道图
3D轨道图
轨道高度分析图
轨道倾角分析图
轨道综合分析图
查看轨道综合分析图
与全量物体交会距离演化趋势
与全量物体交会风险概率演化趋势